Snowfall_Accumulation
0.0 0.0 0.0 0.0 0.0 0.0 0.0 0.0 0.0 0.0 0.0 0.0 0.0 0.0 0.0 0.0 0.0 0.0 0.0 0.0 0.0 0.0 0.0 0.0 0.0 0.0 0.0 0.0 0.0 0.0 0.0 0.0 0.0 0.0 0.0 0.0 0.0 0.0 0.0 0.0 0.0 0.0 0.0
0.0 0.0 0.0 0.0 0.0 0.0 0.0 0.0 0.0 0.0 0.0 0.0 0.0 0.0 0.0 0.0 0.0 0.0 0.0 0.0 0.0 0.0 0.0 0.0 0.0 0.0 0.0 0.0 0.0 0.0 0.0 0.0 0.0 0.0 0.0 0.0 0.0 0.0 0.0 0.0 0.0 0.0 0.0
0.0 0.0 0.0 0.0 0.0 0.0 0.0 0.0 0.0 0.0 0.0 0.0 0.0 0.0 0.0 0.0 0.0 0.0 0.0 0.0 0.0 0.0 0.0 0.0 0.0 0.0 0.0 0.0 0.0 0.0 0.0 0.0 0.0 0.3 0.1 0.0 0.0 0.0 0.0 0.0 0.0 0.0 0.0
0.0 0.0 0.0 0.0 0.0 0.0 0.0 0.0 0.0 0.0 0.0 0.0 0.0 0.0 0.0 0.0 0.0 0.0 0.0 0.0 0.0 0.0 0.0 0.0 0.0 0.0 0.0 0.0 0.0 0.0 0.0 0.1 0.1 0.1 0.0 0.0 0.0 0.0 0.1 0.0 0.1 0.0 0.0
0.0 0.0 0.0 0.0 0.0 0.0 0.0 0.0 0.0 0.0 0.0 0.0 0.0 0.0 0.0 0.0 0.0 0.0 0.0 0.0 0.0 0.0 0.0 0.0 0.0 0.0 0.0 0.0 0.0 0.0 0.1 0.3 0.5 0.6 0.2 0.4 0.2 0.0 0.1 0.1 0.2 0.0 0.0
0.0 0.0 0.0 0.0 0.0 0.0 0.0 0.0 0.0 0.0 0.0 0.0 0.0 0.0 0.0 0.0 0.0 0.0 0.0 0.0 0.0 0.0 0.0 0.0 0.0 0.0 0.0 0.0 0.0 0.1 0.2 0.9 1.4 1.1 0.6 0.6 0.1 0.3 0.4 0.5 0.6 0.7 0.9
0.0 0.0 0.0 0.0 0.0 0.0 0.0 0.0 0.0 0.0 0.0 0.0 0.0 0.0 0.0 0.0 0.0 0.0 0.0 0.0 0.0 0.0 0.0 0.0 0.0 0.0 0.0 0.0 0.0 0.0 0.1 0.1 0.9 1.4 1.8 0.9 0.9 0.3 0.3 0.6 0.5 1.4 1.4
0.0 0.0 0.0 0.0 0.0 0.0 0.0 0.0 0.0 0.0 0.0 0.0 0.0 0.0 0.0 0.0 0.0 0.0 0.0 0.0 0.0 0.0 0.0 0.0 0.0 0.0 0.0 0.0 0.9 0.6 0.1 0.1 0.0 0.1 0.4 0.4 0.2 0.1 0.4 0.5 1.6 1.0 0.2
0.0 0.0 0.0 0.0 0.0 0.0 0.0 0.0 0.0 0.0 0.0 0.0 0.0 0.0 0.0 0.0 0.0 0.0 0.0 0.0 0.0 0.0 0.0 0.0 0.0 0.0 0.0 0.7 1.0 1.2 0.4 0.1 0.0 0.0 0.1 0.4 0.1 0.2 0.2 2.0 3.3 4.0 3.8
1.6 1.8 0.0 0.0 0.0 0.0 0.0 0.0 0.0 0.0 0.0 0.0 0.0 0.0 0.0 0.0 0.0 0.0 0.0 0.1 0.2 0.1 0.1 0.1 0.0 0.2 1.1 1.3 2.6 2.3 2.1 0.5 0.9 0.8 1.7 1.4 1.1 0.7 1.9 1.6 2.6 6.0 4.0
1.4 2.7 0.0 2.2 0.0 0.0 0.0 1.8 1.1 0.0 0.0 0.0 0.0 0.0 0.0 0.0 0.0 0.0 0.0 0.1 0.5 0.8 0.2 0.1 0.2 2.1 1.6 1.3 0.7 1.2 2.6 1.2 0.7 0.4 1.3 1.3 1.9 1.5 1.3 1.2 1.9 3.0 4.3
1.8 1.6 2.3 2.2 1.9 0.0 1.7 0.0 0.7 0.9 0.0 0.0 0.1 0.0 0.0 0.0 0.0 0.0 0.0 0.1 0.3 1.3 1.0 1.1 2.4 1.5 0.5 0.4 1.8 2.3 1.4 1.7 2.4 2.9 3.5 5.5 7.1 8.2 7.3 7.6 7.1 7.2 8.2
0.6 0.9 1.4 1.5 2.0 1.8 1.1 0.8 0.0 0.0 0.0 0.0 0.0 0.0 0.0 0.0 0.0 0.0 0.3 0.3 0.1 0.8 2.3 2.7 1.6 2.7 1.6 1.6 2.4 1.9 1.5 4.1 11.4 14.0 16.9 17.3 17.1 16.6 13.3 13.3 12.5 11.8 11.0
0.0 0.2 0.3 0.6 0.5 0.6 0.9 1.1 0.9 0.6 0.4 0.0 0.0 0.0 0.0 0.0 0.1 0.3 0.3 1.1 1.1 2.0 1.4 1.7 6.0 5.3 6.5 9.3 7.0 14.9 15.3 18.4 20.8 23.2 24.5 23.0 20.5 18.6 16.7 13.7 13.2 10.4 9.5
0.0 0.0 0.0 0.0 0.1 0.2 0.3 0.4 0.4 0.8 0.6 0.7 0.7 0.6 0.7 2.6 3.3 2.6 4.5 2.3 2.4 4.9 6.1 9.3 16.5 12.8 16.9 16.6 16.2 16.6 17.9 17.1 17.1 16.4 15.3 13.8 11.9 10.4 8.8 7.1 7.7 4.8 4.6
0.0 0.0 0.1 0.1 0.1 0.0 0.0 0.1 0.2 0.3 0.3 1.2 0.0 1.3 5.7 8.4 9.5 11.0 11.6 12.1 14.1 13.5 19.4 21.0 21.3 21.0 19.9 17.7 16.2 14.0 11.0 10.0 9.4 8.3 8.2 5.5 6.3 5.6 3.7 1.5 1.1 1.8 1.8
0.0 0.1 0.1 0.2 0.1 1.3 0.1 0.0 2.4 5.4 5.5 7.6 8.5 10.6 10.3 11.6 10.4 9.6 9.8 9.8 10.1 9.6 13.5 12.8 12.3 11.2 9.4 6.9 7.0 6.6 7.2 4.9 2.5 2.8 3.4 2.4 2.5 1.9 1.6 1.5 1.3 1.1 0.8
0.3 0.3 0.6 3.3 5.7 6.8 3.7 5.4 7.0 7.5 12.4 15.9 15.4 13.1 11.5 9.9 8.9 8.0 7.2 6.9 8.9 6.8 7.5 7.5 7.6 6.0 3.7 3.4 3.4 2.9 2.4 1.9 1.1 1.5 2.4 2.0 2.1 2.3 1.7 1.3 1.3 1.5 0.9
0.6 1.1 7.2 9.0 10.5 10.3 10.6 10.6 10.6 10.4 9.8 10.6 8.9 8.9 8.8 6.9 6.3 6.3 5.3 6.7 7.5 7.2 5.7 5.0 4.3 3.6 2.8 1.4 1.8 1.8 2.0 2.1 1.7 2.3 1.9 2.5 2.2 2.6 1.9 1.5 1.6 1.5 1.6
4.9 7.0 6.9 8.0 9.2 9.1 9.1 8.9 9.1 8.5 8.7 8.5 7.9 9.2 8.3 5.5 6.4 6.1 5.3 5.5 5.2 4.5 3.9 3.3 2.4 1.6 2.1 2.5 2.7 2.8 2.4 1.6 1.6 1.5 1.8 2.0 2.6 3.5 4.0 3.1 2.4 3.3 2.0
10.3 11.1 10.1 9.4 9.9 9.4 8.5 7.9 7.5 7.1 7.0 6.4 7.8 7.6 5.6 4.8 6.1 5.0 3.9 3.1 2.8 2.6 2.5 2.7 2.8 3.0 3.1 2.9 2.7 2.2 2.0 1.8 1.6 2.1 2.0 2.0 2.0 2.5 2.2 1.8 2.4 2.0 1.3
9.6 9.6 8.8 8.4 7.9 7.8 7.3 6.5 6.7 6.6 6.3 6.0 4.9 3.6 1.9 3.1 2.7 1.7 1.7 2.8 3.1 3.1 4.0 4.3 3.5 2.9 2.6 2.8 2.7 2.8 2.2 2.0 1.9 2.2 2.0 1.7 1.1 1.6 1.7 1.9 1.7 1.5 2.2
6.9 6.6 5.8 5.6 5.3 4.7 4.4 4.4 4.5 3.6 3.2 2.6 2.5 3.2 2.4 2.4 2.5 2.0 2.8 2.3 2.7 1.8 1.0 1.3 1.9 1.3 1.5 2.1 2.4 3.0 2.5 1.9 1.8 2.3 3.4 2.6 2.2 2.0 2.5 3.0 2.5 2.7 2.5
3.7 4.0 3.7 2.9 3.1 2.4 2.0 2.0 1.4 1.2 2.9 3.4 2.8 1.7 2.5 2.3 3.0 2.5 1.8 1.2 0.8 1.0 1.4 1.6 1.8 1.5 1.4 1.7 2.2 2.4 2.1 1.6 2.9 3.0 3.4 3.2 1.9 1.5 2.4 2.5 2.4 2.6 2.6
1.5 1.8 1.6 1.8 2.1 2.6 2.3 2.6 3.2 2.8 2.9 2.8 2.7 1.9 1.2 0.8 1.2 1.4 1.4 1.3 0.9 0.8 1.1 0.8 1.2 2.1 1.8 2.1 2.4 2.3 2.3 3.3 3.5 3.2 4.7 3.4 2.2 1.8 2.3 2.4 2.2 3.2 2.6
1.0 1.8 1.7 1.7 1.8 2.0 3.6 3.7 2.7 2.3 1.9 1.6 2.3 2.1 1.8 1.6 1.3 1.8 1.5 1.4 2.1 1.2 1.2 1.6 1.2 1.3 1.7 1.5 1.9 2.6 2.6 2.8 4.5 4.5 6.2 5.1 3.7 2.7 2.6 3.0 2.6 3.4 2.2